Location: Prairie View Elementary School
(39.8322°N, 99.5698°W)
Time: 18:05:24
(UTC+00:00)

USA 116 - Pass Details

Date: 08 December 2019
Orbit: 405 x 834 km, 97.9° (Epoch: 18 November)

Event Time Altitude Azimuth Distance (km) Brightness Sun altitude
Exits shadow 00:51:57 12° 18° (NNE) 2,254 6.5 -18.4°
Maximum altitude 00:56:56 67° 101° (E) 853 4.4 -19.3°
Drops below altitude 10° 01:02:00 10° 184° (S) 2,276 7.0 -20.2°
Sets 01:04:14 0° 187° (S) 3,152 7.8 -20.7°
